Change the Weather History Date:

Saturday, December 1, 2012

  Actual Average Record
Temperature  
Mean Temperature 34 °F -  
Max Temperature 37 °F 34 °F 51 °F (1998)
Min Temperature 30 °F 19 °F -12 °F (2014)
Degree Days  
Heating Degree Days 32    
Moisture  
Dew Point 34 °F    
Average Humidity 100    
Maximum Humidity 100    
Minimum Humidity 100    
Precipitation  
Precipitation 0.03 in - - ()
Sea Level Pressure  
Sea Level Pressure 29.90 in    
Wind  
Wind Speed 6 mph (South)    
Max Wind Speed 13 mph    
Max Gust Speed 18 mph    
Visibility 1 miles    
Events Fog , Snow    
Averages and records for this station are not official NWS values.
T = Trace of Precipitation, MM = Missing Value Source: NWS Daily Summary

Daily Weather History Graph

Daily Weather History Graph

Search for Another Location

Airport or City:

Trip Planner

Search our weather history database for the weather conditions in past years. The results will help you decide how hot, cold, wet, or windy it might be!

Date:

Astronomy

Dec. 01, 2012 Rise Set
Actual Time 7:18 AM CST 4:13 PM CST
Civil Twilight 6:45 AM CST 4:47 PM CST
Nautical Twilight 6:07 AM CST 5:24 PM CST
Astronomical Twilight 5:31 AM CST 6:00 PM CST
Moon 7:06 PM CST (12/1) 9:29 AM CST (12/1)
Length of Visible Light 10h 02m
Length of Day
8h 54m
Waning Gibbous, 91% of the Moon is Illuminated
Dec 1
Waning Gibbous
Dec 6
Last Quarter
Dec 13
New
Dec 19
First Quarter
Dec 28
Full

Hourly Weather History & Observations

Time (CST) Temp. Windchill Dew Point Humidity Pressure Visibility Wind Dir Wind Speed Gust Speed Precip Events Conditions
12:15 AM 30.2 °F 24.3 °F 30.2 °F 100% 30.14 in 0.8 mi South 5.8 mph - N/A   Overcast
12:35 AM 30.2 °F 23.4 °F 30.2 °F 100% 30.13 in 1.0 mi South 6.9 mph - N/A   Overcast
12:55 AM 30.2 °F 25.4 °F 30.2 °F 100% 30.13 in 0.8 mi SSE 4.6 mph - N/A   Overcast
1:15 AM 30.2 °F 26.7 °F 30.2 °F 100% 30.12 in 0.5 mi SSE 3.5 mph - N/A Fog Light Freezing Fog
1:35 AM 30.2 °F 25.4 °F 30.2 °F 100% 30.11 in 0.5 mi SSE 4.6 mph - N/A Fog Light Freezing Fog
1:55 AM 30.2 °F - 30.2 °F 100% 30.10 in 0.8 mi Calm Calm - N/A   Overcast
2:15 AM 30.2 °F 23.4 °F 30.2 °F 100% 30.09 in 1.0 mi SSE 6.9 mph - N/A   Overcast
2:35 AM 30.2 °F 24.3 °F 30.2 °F 100% 30.09 in 1.2 mi South 5.8 mph - N/A   Overcast
2:55 AM 32.0 °F 24.2 °F 32.0 °F 100% 30.08 in 1.5 mi South 9.2 mph - N/A   Overcast
3:15 AM 32.0 °F 24.2 °F 32.0 °F 100% 30.08 in 1.5 mi SSE 9.2 mph - N/A   Overcast
3:35 AM 32.0 °F 23.6 °F 32.0 °F 100% 30.07 in 1.2 mi SSE 10.4 mph - N/A   Overcast
3:55 AM 32.0 °F 26.4 °F 32.0 °F 100% 30.07 in 1.2 mi SSE 5.8 mph - N/A   Overcast
4:15 AM 32.0 °F 25.6 °F 32.0 °F 100% 30.06 in 1.2 mi South 6.9 mph - N/A   Overcast
4:35 AM 32.0 °F 26.4 °F 32.0 °F 100% 30.06 in 1.2 mi SSE 5.8 mph - N/A   Overcast
4:55 AM 32.0 °F 25.6 °F 32.0 °F 100% 30.05 in 1.2 mi SSE 6.9 mph - N/A   Overcast
5:15 AM 32.0 °F 25.6 °F 32.0 °F 100% 30.04 in 1.0 mi SSE 6.9 mph - N/A   Overcast
5:35 AM 32.0 °F 24.8 °F 32.0 °F 100% 30.02 in 1.0 mi SSE 8.1 mph - N/A   Overcast
5:55 AM 32.0 °F 24.8 °F 32.0 °F 100% 30.01 in 1.0 mi SSE 8.1 mph - N/A   Overcast
6:15 AM 32.0 °F 26.4 °F 32.0 °F 100% 30.01 in 1.0 mi SSE 5.8 mph - N/A   Overcast
6:35 AM 32.0 °F 24.8 °F 32.0 °F 100% 30.01 in 1.0 mi South 8.1 mph 16.1 mph N/A   Overcast
6:55 AM 32.0 °F 22.5 °F 32.0 °F 100% 30.01 in 1.2 mi South 12.7 mph 18.4 mph N/A   Overcast
7:15 AM 32.0 °F 24.8 °F 32.0 °F 100% 30.00 in 0.8 mi SSE 8.1 mph - N/A   Overcast
7:35 AM 32.0 °F 24.8 °F 32.0 °F 100% 29.99 in 0.8 mi South 8.1 mph - N/A   Overcast
7:55 AM 32.0 °F 24.8 °F 32.0 °F 100% 29.99 in 0.5 mi South 8.1 mph - N/A Fog Fog
8:15 AM 32.0 °F 24.8 °F 32.0 °F 100% 29.97 in 0.5 mi SSE 8.1 mph - N/A Fog Fog
8:35 AM 32.0 °F 24.8 °F 32.0 °F 100% 29.97 in 0.5 mi South 8.1 mph - N/A Fog Fog
8:55 AM 32.0 °F 23.6 °F 32.0 °F 100% 29.96 in 0.5 mi South 10.4 mph - N/A Fog Fog
9:15 AM 32.0 °F 23.6 °F 32.0 °F 100% 29.96 in 0.5 mi South 10.4 mph 17.3 mph N/A Fog Fog
9:35 AM 32.0 °F 24.2 °F 32.0 °F 100% 29.96 in 0.2 mi South 9.2 mph - N/A Fog Fog
9:55 AM 33.8 °F 27.7 °F 33.8 °F 100% 29.96 in 0.2 mi South 6.9 mph - 0.01 in Fog Fog
10:15 AM 33.8 °F 28.6 °F 33.8 °F 100% 29.94 in 0.2 mi SSE 5.8 mph - 0.01 in Fog Fog
10:35 AM 33.8 °F 25.8 °F 33.8 °F 100% 29.93 in 0.5 mi SSE 10.4 mph - 0.01 in Fog Fog
10:55 AM 33.8 °F 27.0 °F 33.8 °F 100% 29.92 in 0.5 mi SSE 8.1 mph - 0.01 in Fog Fog
11:15 AM 33.8 °F 26.4 °F 33.8 °F 100% 29.92 in 0.8 mi South 9.2 mph - N/A   Overcast
11:35 AM 33.8 °F 27.7 °F 33.8 °F 100% 29.91 in 1.0 mi South 6.9 mph - N/A   Overcast
11:55 AM 33.8 °F 27.7 °F 33.8 °F 100% 29.91 in 1.0 mi South 6.9 mph 16.1 mph N/A   Overcast
12:15 PM 33.8 °F 27.0 °F 33.8 °F 100% 29.89 in 0.8 mi South 8.1 mph - N/A   Overcast
12:35 PM 33.8 °F 25.8 °F 33.8 °F 100% 29.87 in 0.8 mi South 10.4 mph - N/A   Overcast
12:55 PM 35.6 °F 28.6 °F 35.6 °F 100% 29.85 in 0.8 mi SSE 9.2 mph - N/A   Overcast
1:15 PM 33.8 °F 27.0 °F 33.8 °F 100% 29.84 in 0.8 mi SSE 8.1 mph - N/A   Overcast
1:35 PM 33.8 °F 27.0 °F 33.8 °F 100% 29.84 in 0.8 mi South 8.1 mph - N/A   Drizzle
1:55 PM 35.6 °F 29.2 °F 35.6 °F 100% 29.81 in 0.8 mi SSE 8.1 mph - N/A   Drizzle
2:15 PM 35.6 °F 29.9 °F 35.6 °F 100% 29.80 in 1.0 mi SSE 6.9 mph - N/A   Light Drizzle
2:35 PM 35.6 °F 29.9 °F 35.6 °F 100% 29.79 in 1.2 mi SSE 6.9 mph - N/A   Overcast
2:55 PM 35.6 °F 30.7 °F 35.6 °F 100% 29.78 in 1.2 mi SSE 5.8 mph - N/A   Overcast
3:15 PM 35.6 °F 30.7 °F 35.6 °F 100% 29.78 in 1.5 mi SSE 5.8 mph - N/A   Overcast
3:35 PM 35.6 °F 29.9 °F 35.6 °F 100% 29.77 in 1.2 mi SSE 6.9 mph - N/A   Overcast
3:55 PM 35.6 °F 29.2 °F 35.6 °F 100% 29.77 in 1.5 mi SSE 8.1 mph - N/A   Overcast
4:15 PM 35.6 °F 30.7 °F 35.6 °F 100% 29.76 in 1.5 mi SSE 5.8 mph - N/A   Overcast
4:35 PM 35.6 °F 30.7 °F 35.6 °F 100% 29.77 in 2.0 mi South 5.8 mph - N/A   Overcast
4:55 PM 35.6 °F 29.9 °F 35.6 °F 100% 29.77 in 1.8 mi South 6.9 mph - N/A   Overcast
5:15 PM 35.6 °F 29.9 °F 35.6 °F 100% 29.76 in 1.2 mi SSE 6.9 mph - N/A   Light Drizzle
5:55 PM 35.6 °F 32.8 °F 35.6 °F 100% 29.75 in 0.8 mi South 3.5 mph - N/A   Overcast
6:15 PM 35.6 °F 32.8 °F 35.6 °F 100% 29.75 in 0.5 mi South 3.5 mph - N/A Fog Fog
6:35 PM 35.6 °F - 35.6 °F 100% 29.76 in 0.5 mi Calm Calm - N/A Fog Fog
6:55 PM 35.6 °F 32.8 °F 35.6 °F 100% 29.77 in 0.2 mi SW 3.5 mph - N/A Fog Fog
7:15 PM 35.6 °F 32.8 °F 35.6 °F 100% 29.78 in 0.5 mi SSW 3.5 mph - N/A   Drizzle
7:55 PM 35.6 °F - 35.6 °F 100% 29.76 in 0.8 mi Calm Calm - N/A   Drizzle
8:15 PM 35.6 °F - 35.6 °F 100% 29.76 in 0.8 mi Calm Calm - 0.01 in   Drizzle
8:35 PM 35.6 °F - 35.6 °F 100% 29.76 in 0.8 mi Calm Calm - 0.01 in   Drizzle
8:55 PM 35.6 °F - 35.6 °F 100% 29.75 in 0.8 mi Calm Calm - 0.01 in   Light Drizzle
9:15 PM 35.6 °F - 35.6 °F 100% 29.76 in 0.2 mi Calm Calm - N/A Snow Light Snow
9:35 PM 37.4 °F - 37.4 °F 100% 29.75 in 0.8 mi Calm Calm - N/A   Overcast
9:55 PM 37.4 °F 34.9 °F 37.4 °F 100% 29.74 in 0.5 mi SW 3.5 mph - N/A Fog Fog
10:15 PM 35.6 °F 31.7 °F 35.6 °F 100% 29.75 in 0.2 mi SW 4.6 mph - N/A Fog Fog
10:35 PM 35.6 °F 30.7 °F 35.6 °F 100% 29.75 in 0.2 mi SW 5.8 mph - N/A Snow Light Snow
10:55 PM 35.6 °F 30.7 °F 35.6 °F 100% 29.75 in 0.2 mi WSW 5.8 mph - N/A Snow Light Snow
11:15 PM 35.6 °F 31.7 °F 35.6 °F 100% 29.75 in 0.2 mi West 4.6 mph - N/A Snow Light Snow
11:35 PM 35.6 °F 31.7 °F 35.6 °F 100% 29.76 in 0.2 mi West 4.6 mph - N/A Snow Light Snow
11:55 PM 35.6 °F 31.7 °F 35.6 °F 100% 29.76 in 0.2 mi WSW 4.6 mph - N/A Snow Light Snow